TimeCDT,TemperatureF,Dew PointF,Humidity,Sea Level PressureIn,VisibilityMPH,Wind Direction,Wind SpeedMPH,Gust SpeedMPH,PrecipitationIn,Events,Conditions,WindDirDegrees,DateUTC
12:53 AM,43.0,30.0,60,29.82,10.0,West,6.9,-,N/A,,Clear,270,2013-04-07 05:53:00
1:53 AM,44.1,28.0,53,29.81,10.0,Calm,Calm,-,N/A,,Partly Cloudy,0,2013-04-07 06:53:00
2:53 AM,42.1,30.0,62,29.81,10.0,West,4.6,18.4,N/A,,Scattered Clouds,260,2013-04-07 07:53:00
3:53 AM,44.1,30.0,58,29.78,10.0,WSW,4.6,-,N/A,,Partly Cloudy,240,2013-04-07 08:53:00
4:53 AM,44.1,32.0,63,29.75,10.0,WNW,3.5,-,N/A,,Clear,290,2013-04-07 09:53:00
5:53 AM,50.0,33.1,52,29.75,10.0,SW,8.1,-,N/A,,Partly Cloudy,230,2013-04-07 10:53:00
6:53 AM,54.0,35.1,49,29.74,10.0,SW,5.8,-,N/A,,Overcast,230,2013-04-07 11:53:00
7:53 AM,55.0,37.9,53,29.75,10.0,SSW,6.9,-,0.00,,Overcast,200,2013-04-07 12:53:00
8:53 AM,55.0,39.9,57,29.76,10.0,South,4.6,-,N/A,,Overcast,180,2013-04-07 13:53:00
9:53 AM,57.0,41.0,55,29.75,10.0,ESE,5.8,-,N/A,,Overcast,110,2013-04-07 14:53:00
10:39 AM,55.4,39.2,54,29.78,10.0,North,9.2,-,N/A,,Overcast,10,2013-04-07 15:39:00
10:53 AM,55.0,42.1,62,29.78,9.0,North,10.4,-,0.00,Rain,Light Rain,350,2013-04-07 15:53:00
11:53 AM,54.0,48.0,80,29.77,7.0,North,10.4,-,0.01,Rain,Light Rain,10,2013-04-07 16:53:00
12:53 PM,55.9,50.0,80,29.75,9.0,North,8.1,-,0.01,Rain,Light Rain,360,2013-04-07 17:53:00
1:53 PM,55.9,48.9,77,29.72,6.0,NNE,8.1,-,0.01,Rain,Light Rain,20,2013-04-07 18:53:00
2:53 PM,64.9,51.1,61,29.65,10.0,ENE,10.4,-,0.01,,Partly Cloudy,60,2013-04-07 19:53:00
3:01 PM,64.4,48.2,56,29.67,10.0,ENE,4.6,-,N/A,Thunderstorm,Clear,70,2013-04-07 20:01:00
3:26 PM,62.6,51.8,68,29.66,10.0,East,12.7,-,N/A,,Mostly Cloudy,80,2013-04-07 20:26:00
3:53 PM,66.0,46.9,50,29.63,10.0,NE,11.5,-,N/A,,Scattered Clouds,50,2013-04-07 20:53:00
4:53 PM,66.0,46.0,48,29.61,10.0,ENE,12.7,-,N/A,,Clear,70,2013-04-07 21:53:00
5:53 PM,66.0,46.9,50,29.60,10.0,ENE,11.5,-,N/A,,Clear,70,2013-04-07 22:53:00
6:53 PM,64.0,46.0,52,29.60,10.0,East,9.2,-,N/A,,Clear,80,2013-04-07 23:53:00
7:53 PM,59.0,46.0,62,29.60,10.0,East,8.1,-,N/A,,Clear,90,2013-04-08 00:53:00
8:53 PM,55.0,46.0,72,29.61,-9999.0,North,-9999.0,-,N/A,,Unknown,0,2013-04-08 01:53:00
9:53 PM,51.1,45.0,80,29.64,10.0,East,4.6,-,N/A,,Clear,80,2013-04-08 02:53:00
10:53 PM,48.9,44.1,83,29.66,10.0,ESE,5.8,-,N/A,,Clear,110,2013-04-08 03:53:00
11:53 PM,48.0,44.1,86,29.67,10.0,Calm,Calm,-,N/A,,Clear,0,2013-04-08 04:53:00